Time,TemperatureF,DewpointF,PressureIn,WindDirection,WindDirectionDegrees,WindSpeedMPH,WindSpeedGustMPH,Humidity,HourlyPrecipIn,Conditions,Clouds,dailyrainin,SoftwareType,DateUTC
2013-09-18 00:02:00,66.2,58.0,29.88,South,180,0.0,-999.0,75,-99.99,,,0.00,Acu-Link.com,2013-09-18 06:02:00,
2013-09-18 00:17:00,66.7,58.6,29.88,ESE,112,1.6,-999.0,75,-99.99,,,0.00,Acu-Link.com,2013-09-18 06:17:00,
2013-09-18 00:33:00,66.4,58.9,29.88,SE,135,3.1,-999.0,77,-99.99,,,0.00,Acu-Link.com,2013-09-18 06:33:00,
2013-09-18 00:48:00,66.0,58.6,29.88,South,180,2.2,-999.0,77,-99.99,,,0.00,Acu-Link.com,2013-09-18 06:48:00,
2013-09-18 01:03:00,65.7,58.6,29.88,ESE,112,0.0,-999.0,78,-99.99,,,0.00,Acu-Link.com,2013-09-18 07:03:00,
2013-09-18 01:18:00,65.1,58.8,29.88,South,180,0.0,-999.0,80,-99.99,,,0.00,Acu-Link.com,2013-09-18 07:18:00,
2013-09-18 01:33:00,64.6,58.6,29.88,SSW,202,0.0,-999.0,81,-99.99,,,0.00,Acu-Link.com,2013-09-18 07:33:00,
2013-09-18 01:49:00,63.7,59.1,29.88,East,90,0.0,-999.0,85,-99.99,,,0.00,Acu-Link.com,2013-09-18 07:49:00,
2013-09-18 02:05:00,63.5,59.2,29.88,ESE,112,0.0,-999.0,86,-99.99,,,0.00,Acu-Link.com,2013-09-18 08:05:00,
2013-09-18 02:20:00,63.5,59.2,29.88,ESE,112,0.0,-999.0,86,-99.99,,,0.00,Acu-Link.com,2013-09-18 08:20:00,
2013-09-18 02:35:00,63.5,59.2,29.88,NE,45,0.0,-999.0,86,-99.99,,,0.00,Acu-Link.com,2013-09-18 08:35:00,
2013-09-18 02:50:00,63.9,59.3,29.88,South,180,0.0,-999.0,85,-99.99,,,0.00,Acu-Link.com,2013-09-18 08:50:00,
2013-09-18 03:06:00,63.7,59.1,29.88,South,180,0.0,-999.0,85,-99.99,,,0.00,Acu-Link.com,2013-09-18 09:06:00,
2013-09-18 03:21:00,64.6,59.6,29.88,SSW,202,1.1,-999.0,84,-99.99,,,0.00,Acu-Link.com,2013-09-18 09:21:00,
2013-09-18 03:36:00,64.8,59.8,29.87,SSW,202,0.0,-999.0,84,-99.99,,,0.00,Acu-Link.com,2013-09-18 09:36:00,
2013-09-18 03:51:00,64.0,60.1,29.87,South,180,2.7,-999.0,87,-99.99,,,0.00,Acu-Link.com,2013-09-18 09:51:00,
2013-09-18 04:06:00,64.9,60.3,29.87,SSW,202,2.2,-999.0,85,-99.99,,,0.00,Acu-Link.com,2013-09-18 10:06:00,
2013-09-18 04:21:00,65.1,60.5,29.87,SW,225,1.6,-999.0,85,-99.99,,,0.00,Acu-Link.com,2013-09-18 10:21:00,
2013-09-18 04:36:00,65.1,60.2,29.86,South,180,2.2,-999.0,84,-99.99,,,0.00,Acu-Link.com,2013-09-18 10:36:00,
2013-09-18 04:52:00,65.1,60.2,29.86,SSW,202,0.0,-999.0,84,-99.99,,,0.00,Acu-Link.com,2013-09-18 10:52:00,
2013-09-18 05:07:00,64.9,60.0,29.86,SSW,202,1.1,-999.0,84,-99.99,,,0.00,Acu-Link.com,2013-09-18 11:07:00,
2013-09-18 05:22:00,64.2,59.6,29.86,SSW,202,0.0,-999.0,85,-99.99,,,0.00,Acu-Link.com,2013-09-18 11:22:00,
2013-09-18 05:37:00,64.0,59.8,29.87,SSW,202,2.2,-999.0,86,-99.99,,,0.00,Acu-Link.com,2013-09-18 11:37:00,
2013-09-18 05:52:00,63.9,59.9,29.87,South,180,1.6,-999.0,87,-99.99,,,0.00,Acu-Link.com,2013-09-18 11:52:00,
2013-09-18 06:08:00,63.3,60.0,29.87,South,180,1.6,-999.0,89,-99.99,,,0.00,Acu-Link.com,2013-09-18 12:08:00,
2013-09-18 06:23:00,63.1,59.8,29.88,South,180,1.6,-999.0,89,-99.99,,,0.00,Acu-Link.com,2013-09-18 12:23:00,
2013-09-18 06:38:00,63.0,59.7,29.87,SE,135,2.2,-999.0,89,-99.99,,,0.00,Acu-Link.com,2013-09-18 12:38:00,
2013-09-18 06:53:00,62.2,59.3,29.89,SE,135,0.0,-999.0,90,-99.99,,,0.00,Acu-Link.com,2013-09-18 12:53:00,
2013-09-18 07:08:00,61.9,59.8,29.89,ENE,67,0.0,-999.0,93,-99.99,,,0.00,Acu-Link.com,2013-09-18 13:08:00,
2013-09-18 07:39:00,64.4,60.8,29.89,South,180,0.0,-999.0,88,-99.99,,,0.00,Acu-Link.com,2013-09-18 13:39:00,
2013-09-18 07:54:00,68.2,61.4,29.90,South,180,1.6,-999.0,79,-99.99,,,0.00,Acu-Link.com,2013-09-18 13:54:00,
2013-09-18 08:09:00,68.9,61.0,29.90,South,180,3.1,-999.0,76,-99.99,,,0.00,Acu-Link.com,2013-09-18 14:09:00,
2013-09-18 08:24:00,70.3,61.3,29.90,SSW,202,1.6,-999.0,73,-99.99,,,0.00,Acu-Link.com,2013-09-18 14:24:00,
2013-09-18 08:40:00,71.2,60.5,29.90,SSW,202,4.7,-999.0,69,-99.99,,,0.00,Acu-Link.com,2013-09-18 14:40:00,
2013-09-18 08:55:00,71.8,61.1,29.90,SSW,202,6.7,-999.0,69,-99.99,,,0.00,Acu-Link.com,2013-09-18 14:55:00,
2013-09-18 09:10:00,71.2,60.9,29.91,South,180,4.3,-999.0,70,-99.99,,,0.00,Acu-Link.com,2013-09-18 15:10:00,
2013-09-18 09:25:00,72.1,61.0,29.90,South,180,4.7,-999.0,68,-99.99,,,0.00,Acu-Link.com,2013-09-18 15:25:00,
2013-09-18 09:41:00,72.9,61.2,29.91,SSW,202,4.3,-999.0,67,-99.99,,,0.00,Acu-Link.com,2013-09-18 15:41:00,
2013-09-18 09:56:00,73.6,61.5,29.91,West,270,4.3,-999.0,66,-99.99,,,0.00,Acu-Link.com,2013-09-18 15:56:00,
2013-09-18 10:11:00,74.1,61.1,29.91,SSW,202,8.9,-999.0,64,-99.99,,,0.00,Acu-Link.com,2013-09-18 16:11:00,
2013-09-18 10:26:00,74.8,61.4,29.91,WNW,292,3.8,-999.0,63,-99.99,,,0.00,Acu-Link.com,2013-09-18 16:26:00,
2013-09-18 10:41:00,76.5,62.0,29.89,East,90,5.8,-999.0,61,-99.99,,,0.00,Acu-Link.com,2013-09-18 16:41:00,
2013-09-18 10:57:00,77.2,61.7,29.89,West,270,7.8,-999.0,59,-99.99,,,0.00,Acu-Link.com,2013-09-18 16:57:00,
2013-09-18 11:12:00,77.9,61.4,29.89,SSE,157,5.1,-999.0,57,-99.99,,,0.00,Acu-Link.com,2013-09-18 17:12:00,
2013-09-18 11:27:00,78.3,61.3,29.89,South,180,4.3,-999.0,56,-99.99,,,0.00,Acu-Link.com,2013-09-18 17:27:00,
2013-09-18 11:42:00,79.5,61.4,29.88,South,180,3.1,-999.0,54,-99.99,,,0.00,Acu-Link.com,2013-09-18 17:42:00,
2013-09-18 11:57:00,79.7,60.5,29.87,South,180,6.7,-999.0,52,-99.99,,,0.00,Acu-Link.com,2013-09-18 17:57:00,
2013-09-18 12:13:00,79.9,60.1,29.87,SSE,157,5.1,-999.0,51,-99.99,,,0.00,Acu-Link.com,2013-09-18 18:13:00,
2013-09-18 12:28:00,81.3,60.3,29.86,SE,135,6.7,-999.0,49,-99.99,,,0.00,Acu-Link.com,2013-09-18 18:28:00,
2013-09-18 12:43:00,82.2,60.5,29.85,South,180,5.1,-999.0,48,-99.99,,,0.00,Acu-Link.com,2013-09-18 18:43:00,
2013-09-18 12:58:00,82.8,60.4,29.84,SSW,202,4.3,-999.0,47,-99.99,,,0.00,Acu-Link.com,2013-09-18 18:58:00,
2013-09-18 13:14:00,82.8,59.8,29.84,SE,135,2.7,-999.0,46,-99.99,,,0.00,Acu-Link.com,2013-09-18 19:14:00,
2013-09-18 13:29:00,82.9,60.0,29.83,East,90,6.3,-999.0,46,-99.99,,,0.00,Acu-Link.com,2013-09-18 19:29:00,
2013-09-18 13:44:00,83.5,59.2,29.82,SSE,157,4.7,-999.0,44,-99.99,,,0.00,Acu-Link.com,2013-09-18 19:44:00,
2013-09-18 13:59:00,84.2,59.2,29.82,SE,135,6.7,-999.0,43,-99.99,,,0.00,Acu-Link.com,2013-09-18 19:59:00,
2013-09-18 14:14:00,84.0,57.8,29.81,SSW,202,3.1,-999.0,41,-99.99,,,0.00,Acu-Link.com,2013-09-18 20:14:00,
2013-09-18 14:30:00,83.3,55.7,29.81,South,180,3.8,-999.0,39,-99.99,,,0.00,Acu-Link.com,2013-09-18 20:30:00,
2013-09-18 14:45:00,84.9,56.4,29.80,SE,135,4.7,-999.0,38,-99.99,,,0.00,Acu-Link.com,2013-09-18 20:45:00,
2013-09-18 15:00:00,84.9,55.7,29.80,SW,225,4.3,-999.0,37,-99.99,,,0.00,Acu-Link.com,2013-09-18 21:00:00,
2013-09-18 15:15:00,84.9,55.0,29.79,SE,135,7.4,-999.0,36,-99.99,,,0.00,Acu-Link.com,2013-09-18 21:15:00,
2013-09-18 15:30:00,84.2,54.3,29.78,SSE,157,5.1,-999.0,36,-99.99,,,0.00,Acu-Link.com,2013-09-18 21:30:00,
2013-09-18 15:46:00,84.0,54.2,29.77,SSW,202,2.2,-999.0,36,-99.99,,,0.00,Acu-Link.com,2013-09-18 21:46:00,
2013-09-18 16:01:00,81.5,52.7,29.77,South,180,5.8,-999.0,37,-99.99,,,0.00,Acu-Link.com,2013-09-18 22:01:00,
2013-09-18 16:16:00,81.7,52.1,29.76,SW,225,1.1,-999.0,36,-99.99,,,0.00,Acu-Link.com,2013-09-18 22:16:00,
2013-09-18 16:31:00,81.0,50.7,29.76,SSE,157,2.7,-999.0,35,-99.99,,,0.00,Acu-Link.com,2013-09-18 22:31:00,
2013-09-18 16:46:00,80.1,52.8,29.76,South,180,1.6,-999.0,39,-99.99,,,0.00,Acu-Link.com,2013-09-18 22:46:00,
2013-09-18 17:02:00,79.3,52.2,29.78,SW,225,2.2,-999.0,39,-99.99,,,0.00,Acu-Link.com,2013-09-18 23:02:00,
2013-09-18 17:17:00,78.6,54.2,29.78,South,180,5.1,-999.0,43,-99.99,,,0.00,Acu-Link.com,2013-09-18 23:17:00,
2013-09-18 17:32:00,78.6,54.2,29.78,SE,135,2.7,-999.0,43,-99.99,,,0.00,Acu-Link.com,2013-09-18 23:32:00,
2013-09-18 17:47:00,76.8,56.2,29.78,West,270,3.8,-999.0,49,-99.99,,,0.00,Acu-Link.com,2013-09-18 23:47:00,
2013-09-18 18:03:00,75.6,57.2,29.77,West,270,4.7,-999.0,53,-99.99,,,0.00,Acu-Link.com,2013-09-19 00:03:00,
2013-09-18 18:18:00,75.7,56.8,29.76,West,270,0.0,-999.0,52,-99.99,,,0.00,Acu-Link.com,2013-09-19 00:18:00,
2013-09-18 18:33:00,75.2,56.9,29.77,WSW,247,2.7,-999.0,53,-99.99,,,0.00,Acu-Link.com,2013-09-19 00:33:00,
2013-09-18 18:48:00,74.8,56.5,29.77,NNW,337,1.6,-999.0,53,-99.99,,,0.00,Acu-Link.com,2013-09-19 00:48:00,
2013-09-18 19:03:00,74.3,56.0,29.77,NW,315,1.6,-999.0,53,-99.99,,,0.00,Acu-Link.com,2013-09-19 01:03:00,
2013-09-18 19:34:00,74.1,56.9,29.79,East,90,1.1,-999.0,55,-99.99,,,0.00,Acu-Link.com,2013-09-19 01:34:00,
2013-09-18 19:49:00,73.6,56.9,29.80,ESE,112,1.6,-999.0,56,-99.99,,,0.00,Acu-Link.com,2013-09-19 01:49:00,
2013-09-18 20:04:00,73.2,56.1,29.79,SSE,157,2.7,-999.0,55,-99.99,,,0.00,Acu-Link.com,2013-09-19 02:04:00,
2013-09-18 20:19:00,73.2,57.5,29.78,East,90,0.0,-999.0,58,-99.99,,,0.00,Acu-Link.com,2013-09-19 02:19:00,
2013-09-18 20:35:00,72.7,57.5,29.78,West,270,1.6,-999.0,59,-99.99,,,0.00,Acu-Link.com,2013-09-19 02:35:00,
2013-09-18 20:50:00,72.1,57.0,29.79,SSW,202,0.0,-999.0,59,-99.99,,,0.00,Acu-Link.com,2013-09-19 02:50:00,
2013-09-18 21:05:00,71.4,57.7,29.79,West,270,0.0,-999.0,62,-99.99,,,0.00,Acu-Link.com,2013-09-19 03:05:00,
2013-09-18 21:20:00,70.9,57.2,29.80,East,90,0.0,-999.0,62,-99.99,,,0.00,Acu-Link.com,2013-09-19 03:20:00,
2013-09-18 21:36:00,70.7,57.9,29.80,SSE,157,0.0,-999.0,64,-99.99,,,0.00,Acu-Link.com,2013-09-19 03:36:00,
2013-09-18 21:51:00,70.5,57.7,29.81,SSE,157,0.0,-999.0,64,-99.99,,,0.00,Acu-Link.com,2013-09-19 03:51:00,
2013-09-18 22:06:00,70.5,58.2,29.81,SSW,202,0.0,-999.0,65,-99.99,,,0.00,Acu-Link.com,2013-09-19 04:06:00,
2013-09-18 22:21:00,70.2,58.3,29.81,ENE,67,2.2,-999.0,66,-99.99,,,0.00,Acu-Link.com,2013-09-19 04:21:00,
2013-09-18 22:36:00,70.3,57.6,29.80,NNE,22,0.0,-999.0,64,-99.99,,,0.00,Acu-Link.com,2013-09-19 04:36:00,
2013-09-18 22:51:00,70.3,57.1,29.81,South,180,0.0,-999.0,63,-99.99,,,0.00,Acu-Link.com,2013-09-19 04:51:00,
2013-09-18 23:07:00,70.3,58.0,29.81,SSW,202,1.6,-999.0,65,-99.99,,,0.00,Acu-Link.com,2013-09-19 05:07:00,
2013-09-18 23:22:00,70.2,58.3,29.81,South,180,0.0,-999.0,66,-99.99,,,0.00,Acu-Link.com,2013-09-19 05:22:00,
2013-09-18 23:37:00,69.4,58.4,29.81,WSW,247,0.0,-999.0,68,-99.99,,,0.00,Acu-Link.com,2013-09-19 05:37:00,
2013-09-18 23:52:00,68.9,58.3,29.81,SE,135,2.2,-999.0,69,-99.99,,,0.00,Acu-Link.com,2013-09-19 05:52:00,